KLBF Airport (North Platte Regional Airport Lee Bird Field) Information

FAA: LBF - ICAO: KLBF

KLBF Airport Location

State Nebraska
County Lincoln
City North Platte
KLBF Airport is 3 miles east of North Platte, NE.
Latitude 41-07-34.4000N
Longitude 100-41-01.2000W
Elevation 2,777ft

KLBF Airport METARs

METAR KLBF 091053Z AUTO 31004KT 10SM FEW110 14/14 A2991 RMK AO2 SLP103 T01440139 $
Altimeter 29.91"
Temperature 14.4°C (57.9°F)
Wind 310° at 4KT
Clouds few at 11,000ft
Visibility 10.0mi
Time observed: 2023-06-09T10:53:00Z

KLBF Airport Details

Status Operational
Activation N/A
Ownership Public
Usage Public
Chart OMAHA
ATC on-site No
Beacon schedule sunset-sunrise
Beacon color clear green

KLBF Airport Contacts

Owner NORTH PLATTE AIRPORT AUTH
Owner address PO BOX 1517, NORTH PLATTE, NE 69103
Owner phone 308-532-1900
Manager N/A
Manager address N/A, N/A
Manager phone N/A

KLBF Airport (North Platte Regional Airport Lee Bird Field) Radio Frequencies

KLBF (Airport) Radio Frequencies

UNICOM 123
Common traffic advisory frequency (CTAF) 123